Weather History for Fredericksburg, TX

Change the Weather History Date:

Thursday, December 5, 2013

  Actual Average (KSAT) Record (KSAT)
Temperature  
Mean Temperature 44 °F 55 °F  
Max Temperature 61 °F 66 °F 85 °F (1977)
Min Temperature 28 °F 43 °F 17 °F (1886)
Degree Days  
Heating Degree Days 20 11  
Month to date heating degree days 53  
Since 1 July heating degree days 264  
Cooling Degree Days 0 1  
Month to date cooling degree days 5  
Year to date cooling degree days 3122  
Moisture  
Dew Point 34 °F    
Average Humidity 82    
Maximum Humidity 97    
Minimum Humidity 68    
Precipitation  
Precipitation 0.00 in 0.06 in 1.19 in (1969)
Month to date precipitation 0.28  
Year to date precipitation 30.64  
Snow  
Snow 0.00 in - - ()
Month to date snowfall  
Since 1 July snowfall  
Snow Depth -    
Sea Level Pressure  
Sea Level Pressure 29.98 in    
Wind  
Wind Speed 9 mph (North)    
Max Wind Speed 21 mph    
Max Gust Speed 26 mph    
Visibility 9 miles    
Events      
T = Trace of Precipitation, MM = Missing Value Source: NWS Daily Summary

Daily Weather History Graph

Daily Weather History Graph

Search for Another Location

Airport:

Trip Planner

Search our weather history database for the weather conditions in past years. The results will help you decide how hot, cold, wet, or windy it might be!

Date:

Astronomy

Dec. 05, 2013 Rise Set
Actual Time 7:17 AM CST 5:34 PM CST
Civil Twilight 6:51 AM CST 6:01 PM CST
Nautical Twilight 6:21 AM CST 6:30 PM CST
Astronomical Twilight 5:52 AM CST 7:00 PM CST
Moon 9:44 AM CST (12/5) 8:50 PM CST (12/5)
Length of Visible Light 11h 09m
Length of Day
10h 17m
Waxing Crescent, 11% of the Moon is Illuminated
Dec 5
Waxing Crescent
Dec 9
First Quarter
Dec 17
Full
Dec 25
Last Quarter
Jan 1
New

Hourly Weather History & Observations

Time (CST) Temp. Windchill Dew Point Humidity Pressure Visibility Wind Dir Wind Speed Gust Speed Precip Events Conditions
12:15 AM 54.5 °F - 53.4 °F 96% 29.81 in 4.0 mi Calm Calm - N/A   Clear
12:35 AM 55.0 °F - 54.0 °F 96% 29.82 in 5.0 mi Calm Calm - N/A   Clear
12:55 AM 54.1 °F - 53.1 °F 96% 29.80 in 5.0 mi Calm Calm - N/A   Clear
1:15 AM 54.0 °F - 53.1 °F 97% 29.80 in 4.0 mi Calm Calm - N/A   Clear
1:35 AM 54.1 °F - 53.1 °F 96% 29.81 in 5.0 mi Calm Calm - N/A   Clear
1:55 AM 54.1 °F - 53.2 °F 97% 29.80 in 3.0 mi Calm Calm - N/A   Clear
2:15 AM 54.7 °F - 53.8 °F 97% 29.80 in 3.0 mi Calm Calm - N/A   Clear
2:35 AM 54.1 °F - 53.2 °F 97% 29.81 in 5.0 mi Calm Calm - N/A   Clear
2:55 AM 55.0 °F - 54.1 °F 97% 29.81 in 4.0 mi North 3.5 mph - N/A   Clear
3:15 AM 57.0 °F - 56.1 °F 97% 29.83 in 4.0 mi North 11.5 mph - N/A   Clear
3:35 AM 60.8 °F - 59.0 °F 94% 29.85 in 7.0 mi NNW 8.1 mph - N/A   Scattered Clouds
3:55 AM 61.9 °F - 58.8 °F 90% 29.87 in 7.0 mi North 13.8 mph 19.6 mph N/A   Scattered Clouds
4:15 AM 54.3 °F - 50.9 °F 88% 29.88 in 7.0 mi North 17.3 mph 23.0 mph N/A   Mostly Cloudy
4:35 AM 52.0 °F - 47.7 °F 85% 29.90 in 10.0 mi North 13.8 mph 19.6 mph N/A   Overcast
4:55 AM 50.4 °F - 44.6 °F 81% 29.90 in 10.0 mi North 12.7 mph 18.4 mph N/A   Overcast
5:15 AM 49.3 °F - 42.8 °F 78% 29.92 in 10.0 mi North 9.2 mph 19.6 mph N/A   Overcast
5:35 AM 47.7 °F - 39.9 °F 75% 29.94 in 10.0 mi North 15.0 mph 18.4 mph N/A   Overcast
5:55 AM 46.6 °F - 38.5 °F 73% 29.94 in 10.0 mi North 12.7 mph 19.6 mph N/A   Overcast
6:15 AM 45.9 °F 40.4 °F 37.4 °F 72% 29.96 in 10.0 mi North 11.5 mph 19.6 mph N/A   Overcast
6:35 AM 45.0 °F 40.1 °F 36.5 °F 72% 29.97 in 10.0 mi NNE 9.2 mph - N/A   Overcast
6:55 AM 43.9 °F 38.3 °F 35.6 °F 73% 29.98 in 10.0 mi NE 10.4 mph - N/A   Overcast
7:15 AM 41.9 °F 34.3 °F 34.7 °F 76% 29.99 in 10.0 mi NNE 15.0 mph 20.7 mph N/A   Overcast
7:35 AM 40.6 °F 32.3 °F 34.7 °F 79% 29.99 in 10.0 mi North 16.1 mph - N/A   Overcast
7:55 AM 39.2 °F 31.2 °F 33.8 °F 81% 30.01 in 10.0 mi North 13.8 mph 20.7 mph N/A   Overcast
8:15 AM 38.3 °F 29.0 °F 32.9 °F 81% 30.01 in 10.0 mi North 17.3 mph 20.7 mph N/A   Overcast
8:35 AM 38.3 °F 30.5 °F 32.9 °F 81% 30.03 in 10.0 mi North 12.7 mph - N/A   Overcast
8:55 AM 37.4 °F 28.9 °F 32.7 °F 83% 30.03 in 7.0 mi NNE 13.8 mph 24.2 mph N/A   Overcast
9:15 AM 36.5 °F 28.7 °F 32.4 °F 85% 30.02 in 7.0 mi North 11.5 mph - N/A   Overcast
9:35 AM 36.5 °F 27.8 °F 32.5 °F 86% 30.03 in 7.0 mi NNE 13.8 mph 18.4 mph N/A   Overcast
9:55 AM 36.0 °F 26.3 °F 32.0 °F 86% 30.05 in 10.0 mi North 16.1 mph - N/A   Overcast
10:15 AM 35.6 °F 27.1 °F 31.6 °F 85% 30.06 in 10.0 mi NNE 12.7 mph 19.6 mph N/A   Overcast
10:35 AM 35.4 °F 26.8 °F 31.1 °F 84% 30.07 in 10.0 mi North 12.7 mph - N/A   Overcast
10:55 AM 35.6 °F 27.5 °F 30.9 °F 83% 30.05 in 10.0 mi NNE 11.5 mph - N/A   Overcast
11:15 AM 36.5 °F 29.2 °F 30.4 °F 78% 30.04 in 10.0 mi NNE 10.4 mph - N/A   Overcast
11:35 AM 36.7 °F 28.0 °F 29.8 °F 76% 30.03 in 10.0 mi NNE 13.8 mph - N/A   Overcast
11:55 AM 37.4 °F 28.9 °F 29.7 °F 74% 30.02 in 10.0 mi North 13.8 mph - N/A   Overcast
12:15 PM 36.9 °F 27.8 °F 28.8 °F 72% 30.02 in 10.0 mi North 15.0 mph 18.4 mph N/A   Overcast
12:35 PM 36.9 °F 28.7 °F 28.6 °F 72% 30.00 in 10.0 mi North 12.7 mph 17.3 mph N/A   Overcast
12:55 PM 37.2 °F 29.1 °F 28.8 °F 71% 30.00 in 10.0 mi NNE 12.7 mph - N/A   Overcast
1:15 PM 37.4 °F 28.9 °F 28.6 °F 70% 30.02 in 10.0 mi North 13.8 mph - N/A   Overcast
1:35 PM 36.5 °F 26.0 °F 27.7 °F 70% 30.02 in 10.0 mi North 19.6 mph 25.3 mph N/A   Overcast
1:55 PM 36.5 °F 25.7 °F 27.3 °F 69% 30.02 in 10.0 mi NNW 20.7 mph 26.5 mph N/A   Overcast
2:15 PM 35.6 °F 25.5 °F 27.5 °F 72% 30.01 in 10.0 mi North 17.3 mph - N/A   Overcast
2:35 PM 36.1 °F 26.9 °F 27.0 °F 69% 30.02 in 10.0 mi North 15.0 mph 21.9 mph N/A   Overcast
2:55 PM 35.2 °F 25.8 °F 26.8 °F 71% 30.00 in 10.0 mi NNW 15.0 mph - N/A   Overcast
3:15 PM 34.7 °F 24.3 °F 26.6 °F 72% 30.00 in 10.0 mi North 17.3 mph 21.9 mph N/A   Overcast
3:35 PM 34.2 °F 23.0 °F 25.5 °F 71% 30.00 in 10.0 mi NNE 19.6 mph 23.0 mph N/A   Overcast
3:55 PM 34.2 °F 24.8 °F 24.4 °F 68% 29.99 in 10.0 mi NNE 13.8 mph 21.9 mph N/A   Overcast
4:15 PM 33.6 °F 24.6 °F 24.4 °F 69% 29.99 in 10.0 mi NNE 12.7 mph 20.7 mph N/A   Overcast
4:35 PM 33.3 °F 23.7 °F 23.9 °F 69% 30.00 in 10.0 mi North 13.8 mph - N/A   Overcast
4:55 PM 32.9 °F 23.2 °F 23.9 °F 69% 30.01 in 10.0 mi NNE 13.8 mph 18.4 mph N/A   Overcast
5:15 PM 32.4 °F 22.1 °F 23.7 °F 70% 30.02 in 10.0 mi North 15.0 mph 19.6 mph N/A   Overcast
5:35 PM 32.2 °F 23.8 °F 23.4 °F 70% 30.02 in 10.0 mi NNE 10.4 mph 18.4 mph N/A   Overcast
5:55 PM 32.9 °F 25.3 °F 23.4 °F 68% 30.02 in 10.0 mi NNE 9.2 mph 16.1 mph N/A   Overcast
6:15 PM 32.9 °F 24.1 °F 23.9 °F 69% 30.03 in 10.0 mi North 11.5 mph - N/A   Overcast
6:35 PM 32.0 °F 22.1 °F 25.5 °F 77% 30.03 in 10.0 mi North 13.8 mph 18.4 mph N/A   Overcast
6:55 PM 31.5 °F 20.5 °F 25.3 °F 78% 30.04 in 10.0 mi NNE 16.1 mph 20.7 mph N/A   Overcast
7:15 PM 31.1 °F 20.5 °F 25.5 °F 80% 30.05 in 10.0 mi North 15.0 mph - N/A   Overcast
7:35 PM 30.2 °F 19.8 °F 26.2 °F 85% 30.05 in 10.0 mi North 13.8 mph - N/A   Overcast
7:55 PM 30.0 °F 19.5 °F 25.9 °F 85% 30.04 in 10.0 mi North 13.8 mph 19.6 mph N/A   Overcast
8:15 PM 29.8 °F 20.9 °F 26.2 °F 86% 30.04 in 10.0 mi NNE 10.4 mph - N/A   Overcast
8:35 PM 29.8 °F 21.5 °F 26.2 °F 86% 30.05 in 10.0 mi North 9.2 mph - N/A   Overcast
8:55 PM 29.7 °F 19.6 °F 25.9 °F 86% 30.06 in 10.0 mi North 12.7 mph 18.4 mph N/A   Overcast
9:15 PM 29.5 °F 19.3 °F 25.7 °F 86% 30.06 in 10.0 mi North 12.7 mph - N/A   Overcast
9:35 PM 29.7 °F 21.3 °F 26.1 °F 86% 30.05 in 10.0 mi North 9.2 mph - N/A   Overcast
9:55 PM 29.1 °F 18.4 °F 26.6 °F 90% 30.06 in 7.0 mi North 13.8 mph 17.3 mph N/A   Overcast
10:15 PM 28.4 °F 19.1 °F 26.4 °F 92% 30.05 in 5.0 mi NNE 10.4 mph - N/A   Overcast
10:35 PM 28.4 °F 20.4 °F 26.6 °F 93% 30.05 in 7.0 mi North 8.1 mph - N/A   Overcast
10:55 PM 28.8 °F 20.9 °F 26.6 °F 92% 30.06 in 7.0 mi North 8.1 mph - N/A   Overcast
11:15 PM 28.8 °F 19.5 °F 27.0 °F 93% 30.06 in 7.0 mi North 10.4 mph - N/A   Overcast
11:35 PM 28.9 °F 18.6 °F 27.0 °F 92% 30.06 in 7.0 mi North 12.7 mph - N/A   Overcast
11:55 PM 28.8 °F 19.0 °F 27.1 °F 94% 30.06 in 7.0 mi North 11.5 mph 18.4 mph N/A   Overcast